Wetbulb
58.80 58.64 58.73 58.88 58.83 59.01 59.26 59.42 59.38 59.37 59.48 59.68 60.04 60.21 60.33 60.42 59.87 51.66 46.71 53.69 55.11 63.76 58.10 51.10 49.84 48.16 47.71 46.29 45.35 41.61 36.06 32.14 34.91 35.14 38.48 40.27 38.76 42.81 41.04 41.00 39.82 43.24 41.86 42.64 41.29
58.50 58.33 58.45 58.56 58.68 58.67 58.82 58.92 58.86 58.95 59.20 59.42 59.51 59.79 60.02 60.00 52.26 48.37 56.48 62.60 64.78 63.05 50.86 49.06 46.63 46.83 44.23 44.10 44.41 41.56 33.98 36.05 38.37 37.73 39.31 40.07 40.20 41.27 42.24 40.34 38.90 40.73 42.29 40.33 40.87
58.36 58.19 58.26 58.36 58.50 58.62 58.48 58.34 58.26 58.43 58.71 59.00 59.27 59.37 59.51 57.65 44.97 44.87 62.19 64.14 65.69 60.86 51.22 48.73 47.67 46.78 41.84 43.84 43.20 40.44 38.20 39.23 41.59 42.14 41.96 41.25 39.65 41.10 39.24 40.15 41.03 41.94 43.31 41.27 40.23
58.28 58.16 58.09 58.20 58.32 58.54 58.53 58.29 58.13 58.08 58.29 58.44 58.79 58.93 58.83 51.64 37.87 46.01 63.81 65.36 64.98 52.38 49.93 47.51 45.46 42.66 40.85 40.89 43.34 39.55 42.14 41.91 42.72 43.37 41.62 41.20 41.56 40.23 40.91 46.44 45.12 44.14 43.54 40.51 40.56
58.57 58.39 58.31 58.12 58.32 58.48 58.48 58.34 58.49 58.28 58.05 58.16 58.33 58.57 51.11 41.31 44.56 54.07 63.14 62.95 53.57 50.30 48.15 45.97 43.74 42.33 39.59 40.20 40.55 39.52 41.24 43.53 43.80 42.29 42.98 42.38 42.94 41.53 40.36 44.79 43.98 43.37 42.33 41.79 40.93
58.87 58.54 58.44 58.45 58.51 58.51 58.40 58.39 58.47 58.47 58.08 57.93 58.00 57.77 45.01 38.25 47.52 55.50 55.76 52.69 50.38 48.07 45.92 45.72 44.27 44.74 41.11 40.75 40.89 39.72 40.84 41.44 41.48 42.33 42.36 42.22 44.00 41.19 43.48 42.22 43.86 41.65 42.33 41.29 40.52
59.11 58.69 58.39 58.42 58.73 58.54 58.48 58.55 58.42 58.42 58.17 58.17 57.69 55.28 44.46 43.36 48.53 52.13 52.08 49.34 48.73 47.66 44.84 44.93 44.85 42.91 40.98 38.65 40.77 40.32 38.92 38.78 38.77 39.72 39.97 40.47 39.05 37.80 44.99 41.28 42.72 41.68 40.87 40.96 40.97
58.99 58.40 58.10 58.13 58.22 58.25 58.31 58.49 58.59 58.52 58.29 58.25 57.39 49.86 39.88 47.76 47.99 48.57 47.89 45.65 46.22 45.78 45.42 45.14 45.53 43.80 40.74 40.81 39.56 35.26 35.15 32.55 36.85 37.57 38.75 39.87 33.96 41.71 41.38 38.78 40.63 41.22 41.46 41.26 42.64
58.35 57.84 57.82 57.93 57.77 57.71 58.01 58.15 57.55 57.94 57.40 57.33 50.09 43.19 39.96 50.99 46.04 47.29 46.82 45.32 45.41 44.80 44.63 48.38 44.51 40.45 38.86 34.92 32.96 31.07 29.64 30.25 34.22 39.09 38.03 37.17 34.67 40.53 39.65 39.14 40.06 40.68 41.62 41.95 44.96
57.98 57.69 57.73 57.75 57.62 57.66 57.78 56.59 56.22 55.18 55.67 55.58 51.06 40.14 42.80 42.17 45.98 46.01 45.15 46.30 43.79 43.67 42.68 41.78 38.83 36.27 33.85 33.11 29.00 29.88 27.76 29.97 30.58 37.19 34.73 34.04 35.36 40.05 41.63 39.84 39.72 41.18 43.10 44.05 44.50
58.10 57.87 57.86 57.75 57.80 57.98 51.53 45.99 42.12 40.11 44.49 42.12 41.95 40.15 41.18 45.02 47.05 44.81 46.13 45.54 43.11 40.21 36.80 37.01 34.10 32.82 37.07 35.83 36.99 30.76 30.29 30.21 33.49 37.65 33.22 36.94 37.54 39.17 40.91 39.43 41.81 43.00 42.94 43.31 44.48
58.50 58.12 57.92 57.61 57.68 55.68 46.22 43.34 41.65 42.87 37.86 43.01 42.70 43.70 44.37 44.93 41.79 43.21 45.67 42.51 40.04 36.50 35.84 33.86 31.59 38.31 36.82 35.27 34.59 32.55 32.16 33.29 36.48 38.18 33.54 34.71 35.50 39.06 40.53 41.34 41.98 42.73 43.56 43.70 43.86
58.47 57.88 57.46 57.09 56.56 49.80 44.10 42.37 46.96 45.49 36.04 39.89 41.53 40.80 41.68 44.16 40.90 41.39 43.89 40.26 37.75 34.95 34.83 34.97 37.43 38.43 36.46 33.49 33.70 31.21 30.45 33.63 32.66 33.87 32.93 31.33 32.93 33.36 37.55 37.84 40.92 41.60 43.11 41.17 41.48
58.67 58.14 57.25 56.46 51.81 47.15 44.65 46.15 47.10 43.87 34.15 36.93 37.64 39.76 41.63 41.06 36.49 40.16 41.06 39.64 36.20 36.28 34.07 33.83 37.11 36.88 32.76 33.36 34.56 32.78 35.66 34.95 33.37 29.51 27.70 31.20 27.35 31.36 35.86 37.25 38.03 40.26 38.61 39.33 40.54
57.85 57.95 57.58 55.69 49.37 47.59 47.00 47.40 45.28 39.59 28.86 39.03 37.06 43.21 41.23 37.70 36.36 36.87 39.01 38.47 34.95 35.05 33.70 33.58 32.30 31.90 32.26 34.80 35.03 33.99 34.78 32.84 30.22 28.32 26.23 26.23 24.57 30.20 32.20 33.95 37.04 38.46 39.33 38.84 39.43
56.67 57.31 56.45 53.38 50.39 49.85 48.46 46.99 42.10 35.59 30.46 36.72 36.60 35.82 35.55 36.53 35.91 36.36 36.83 37.59 36.20 33.35 32.27 34.22 33.94 35.46 35.78 35.30 35.76 34.33 31.61 29.86 28.03 27.47 22.89 28.75 27.55 33.75 30.64 33.01 35.45 38.69 42.84 39.72 39.85
53.84 55.46 54.84 53.81 50.76 49.80 48.33 47.84 40.20 33.74 39.85 35.69 33.43 34.74 33.49 33.57 34.53 34.22 33.79 32.74 32.82 29.91 28.73 30.74 32.05 33.42 35.30 31.80 31.85 31.83 28.87 22.30 19.97 18.94 22.53 26.98 25.10 34.33 36.93 39.23 37.77 38.40 38.57 38.87 38.69
52.10 54.30 54.80 54.18 52.07 49.75 50.31 44.62 33.40 36.82 36.94 38.82 37.03 36.20 35.72 35.89 36.63 33.44 30.84 30.81 32.48 30.62 27.62 28.51 32.01 32.16 33.75 34.77 32.61 30.07 31.45 23.92 19.67 17.71 26.83 24.00 24.39 35.47 37.77 38.76 38.85 37.06 37.54 36.45 37.84
51.87 54.55 54.22 54.84 51.53 52.32 47.98 37.93 35.80 36.36 39.90 39.22 39.79 35.24 34.04 34.61 36.62 31.27 30.01 30.76 34.66 33.65 33.28 27.58 29.75 31.69 33.29 33.36 34.33 28.93 28.10 33.22 27.64 28.31 22.61 29.83 31.47 36.93 39.01 35.77 35.91 34.15 35.37 36.22 37.99
45.77 50.76 50.35 54.56 52.36 50.87 43.49 38.69 37.64 41.48 41.71 41.18 37.31 39.41 33.75 32.68 33.03 32.18 32.02 33.03 33.71 34.42 35.59 34.59 29.75 33.06 32.04 32.68 33.11 32.73 33.35 26.20 25.46 20.84 18.91 24.95 28.18 30.90 36.62 39.47 37.52 36.40 36.06 37.36 37.59
45.38 44.20 47.90 51.60 52.51 45.74 37.70 38.77 41.58 44.51 44.30 41.06 39.46 39.18 38.14 37.64 37.15 37.36 38.30 38.01 35.62 34.57 34.68 34.79 33.05 31.64 32.22 30.39 32.21 30.80 28.64 28.69 29.42 28.35 24.45 23.27 28.58 36.95 38.97 40.12 36.01 35.75 38.69 38.79 35.97
43.77 36.81 49.71 52.39 41.58 42.32 38.43 40.87 42.64 42.30 43.59 41.67 42.40 40.88 38.88 39.11 37.41 36.96 36.79 39.33 40.65 39.54 34.89 35.64 36.95 31.78 32.90 35.45 34.69 33.25 34.15 33.20 28.17 26.09 27.52 27.91 28.09 39.67 39.34 41.03 36.79 33.43 33.34 34.43 34.06
39.83 39.04 50.31 49.94 34.96 36.81 40.08 40.47 42.10 40.80 40.97 41.08 39.97 40.98 41.53 38.31 35.28 38.32 38.48 41.26 42.15 40.93 39.06 39.75 34.42 28.24 29.28 31.29 32.85 31.66 34.45 35.21 35.04 32.32 28.73 25.74 27.36 39.80 39.72 34.28 32.20 29.60 29.06 30.11 31.23
38.59 30.25 41.10 43.91 41.68 38.56 35.80 35.78 36.32 41.02 41.09 41.73 40.52 41.33 38.92 36.78 38.55 36.32 36.90 38.32 37.82 38.94 41.13 40.20 34.31 31.56 26.62 28.90 33.33 31.95 33.34 34.55 33.57 29.10 28.44 28.63 30.23 35.42 28.53 26.91 26.34 28.41 27.54 28.33 29.38
32.66 30.65 34.75 28.97 34.01 35.98 37.02 35.83 33.54 33.24 37.21 39.31 37.84 37.43 36.20 33.67 34.88 34.54 36.64 36.71 35.45 37.15 36.03 36.79 30.72 32.40 32.83 34.40 33.26 31.65 30.12 30.04 28.90 30.49 26.92 28.87 29.75 30.62 23.58 24.14 25.63 27.95 27.77 27.68 28.49
28.79 29.45 32.12 29.55 30.91 31.30 32.80 31.48 32.45 33.67 34.34 33.58 32.99 34.53 34.52 32.20 33.32 31.63 33.50 31.54 31.13 32.51 32.09 34.04 26.81 28.09 24.06 27.23 27.10 25.86 28.20 27.98 28.54 28.11 28.24 28.83 26.43 23.74 24.51 26.12 25.77 26.66 26.82 26.20 27.53
31.86 33.21 33.81 28.12 27.46 25.87 25.70 28.43 29.61 29.95 31.74 31.65 30.08 30.89 30.47 31.89 32.60 32.16 31.52 31.17 31.12 28.89 27.83 28.38 26.85 23.95 19.14 23.83 23.26 17.97 23.20 25.67 27.00 28.83 24.63 21.19 20.35 21.62 21.79 23.62 24.60 25.87 27.71 25.88 26.81
MSLP
1020.06 1019.84 1019.61 1019.48 1019.27 1019.03 1018.78 1018.53 1018.32 1018.12 1017.90 1017.65 1017.39 1017.13 1016.86 1016.52 1016.00 1015.98 1015.38 1013.54 1013.63 1013.96 1014.31 1015.00 1015.27 1015.54 1015.82 1016.45 1016.95 1017.62 1018.55 1018.77 1017.91 1017.12 1015.51 1014.64 1014.50 1013.80 1013.80 1014.07 1014.24 1014.07 1013.88 1013.71 1014.44
1020.19 1020.02 1019.77 1019.50 1019.30 1019.12 1018.89 1018.66 1018.39 1018.16 1017.97 1017.71 1017.44 1017.14 1016.87 1016.60 1016.21 1015.21 1013.14 1013.08 1013.31 1013.70 1014.34 1014.86 1015.41 1015.68 1016.30 1016.67 1017.11 1017.60 1018.46 1017.69 1016.48 1015.88 1015.06 1014.48 1014.34 1013.81 1013.85 1013.81 1013.81 1013.59 1013.35 1013.81 1014.56
1020.24 1020.09 1019.87 1019.59 1019.30 1019.06 1018.89 1018.62 1018.39 1018.10 1017.87 1017.69 1017.45 1017.13 1016.87 1016.66 1016.04 1013.80 1012.79 1013.17 1013.44 1013.72 1014.03 1014.55 1015.10 1015.54 1016.28 1016.62 1016.87 1017.24 1017.28 1016.46 1015.53 1015.06 1014.79 1014.48 1014.09 1013.64 1013.78 1013.35 1012.86 1013.15 1012.84 1013.47 1014.29
1020.20 1020.05 1019.87 1019.65 1019.35 1019.05 1018.72 1018.51 1018.27 1018.00 1017.72 1017.47 1017.28 1017.02 1016.61 1016.61 1015.52 1013.22 1012.98 1013.18 1013.66 1014.00 1014.46 1014.99 1015.52 1015.94 1016.31 1016.57 1016.37 1016.97 1016.12 1015.80 1015.06 1014.76 1014.76 1014.51 1013.90 1013.68 1013.59 1011.84 1011.56 1011.68 1012.06 1012.67 1013.50
1020.17 1019.99 1019.80 1019.58 1019.36 1019.02 1018.74 1018.42 1018.11 1017.85 1017.58 1017.34 1017.12 1016.82 1016.48 1016.22 1014.46 1013.09 1013.15 1013.46 1013.89 1014.21 1014.64 1015.16 1015.62 1016.06 1016.27 1016.19 1016.26 1016.44 1015.73 1015.36 1014.79 1014.86 1014.67 1014.41 1013.50 1013.72 1012.71 1010.98 1011.11 1011.60 1011.84 1012.03 1012.48
1020.09 1019.90 1019.75 1019.46 1019.16 1018.84 1018.50 1018.20 1017.85 1017.54 1017.35 1017.16 1017.01 1016.92 1016.59 1015.57 1012.88 1013.08 1013.38 1013.75 1013.98 1014.40 1014.79 1014.98 1015.15 1015.28 1015.72 1015.85 1016.06 1015.66 1015.54 1015.17 1014.79 1014.68 1014.47 1014.40 1012.92 1013.42 1011.03 1010.71 1010.82 1011.20 1010.94 1011.06 1011.56
1019.94 1019.77 1019.55 1019.38 1019.05 1018.63 1018.18 1017.78 1017.42 1017.07 1016.91 1016.86 1016.85 1016.91 1016.55 1013.78 1012.84 1013.18 1013.52 1013.84 1013.98 1014.19 1014.54 1014.76 1014.88 1015.16 1015.34 1015.49 1015.44 1015.60 1015.89 1015.16 1014.44 1013.86 1014.07 1013.95 1013.87 1012.53 1010.33 1010.81 1010.69 1010.28 1010.41 1010.18 1010.11
1019.87 1019.65 1019.46 1019.22 1018.94 1018.50 1017.95 1017.38 1016.88 1016.46 1016.25 1016.37 1016.74 1016.85 1015.32 1013.03 1013.14 1013.50 1013.61 1013.86 1014.01 1014.17 1014.30 1014.49 1014.60 1015.13 1015.53 1015.59 1015.66 1015.95 1016.15 1015.62 1014.07 1014.23 1013.69 1013.75 1012.95 1010.49 1010.19 1010.45 1010.52 1009.90 1009.68 1009.47 1008.92
1019.66 1019.57 1019.30 1018.96 1018.66 1018.22 1017.57 1017.00 1016.58 1016.24 1016.06 1016.34 1016.74 1016.54 1014.73 1013.15 1013.18 1013.17 1013.41 1013.78 1014.16 1014.34 1014.40 1014.66 1015.02 1015.66 1015.94 1016.34 1016.68 1016.66 1016.37 1015.76 1014.72 1013.42 1013.82 1013.76 1012.24 1010.64 1010.01 1010.21 1010.18 1009.52 1008.68 1008.56 1007.64
1019.26 1019.18 1019.12 1018.87 1018.54 1018.02 1017.25 1016.69 1016.59 1016.45 1016.65 1016.71 1016.30 1016.50 1013.75 1012.93 1012.95 1013.36 1013.52 1013.71 1014.24 1014.63 1014.99 1015.25 1015.88 1016.30 1016.90 1017.05 1016.91 1016.50 1016.61 1015.77 1015.05 1013.34 1013.32 1013.22 1011.80 1010.92 1010.35 1009.89 1009.12 1008.83 1007.97 1007.21 1006.60
1018.98 1018.88 1018.86 1018.77 1018.49 1017.94 1017.30 1017.01 1017.18 1017.21 1016.73 1016.03 1015.82 1014.69 1013.47 1013.28 1013.06 1013.58 1013.66 1013.99 1014.43 1014.97 1015.43 1015.82 1016.52 1016.24 1015.24 1015.74 1015.47 1016.18 1016.22 1015.65 1014.51 1013.61 1013.47 1012.34 1011.10 1010.64 1009.92 1009.58 1007.94 1007.24 1006.88 1005.95 1005.17
1018.73 1018.84 1018.75 1018.67 1018.44 1018.02 1017.99 1018.71 1019.36 1019.76 1017.84 1015.29 1014.82 1014.59 1013.76 1013.32 1013.50 1013.69 1013.74 1014.04 1014.73 1015.31 1015.88 1016.76 1016.49 1015.09 1015.51 1016.03 1016.51 1016.56 1016.17 1015.47 1013.95 1013.43 1013.37 1012.19 1010.07 1009.81 1008.98 1007.77 1007.55 1006.17 1005.46 1005.31 1004.87
1018.65 1018.48 1018.59 1018.51 1018.27 1018.46 1019.26 1019.50 1019.40 1019.62 1018.93 1015.38 1014.16 1013.82 1013.48 1013.54 1013.56 1013.81 1014.04 1014.32 1014.66 1015.43 1015.53 1015.61 1014.71 1014.86 1015.55 1015.92 1016.00 1016.18 1016.39 1015.09 1014.67 1013.97 1013.44 1012.05 1008.84 1008.67 1007.41 1006.65 1005.95 1005.82 1004.69 1005.19 1004.96
1018.50 1018.45 1018.61 1018.55 1018.70 1019.02 1019.28 1019.32 1019.43 1019.73 1018.59 1015.41 1014.03 1013.39 1013.31 1013.48 1014.01 1014.11 1014.13 1014.51 1014.82 1014.90 1015.44 1015.52 1014.51 1014.81 1015.52 1015.50 1015.52 1015.21 1014.71 1014.84 1015.08 1015.27 1014.43 1013.23 1008.13 1007.77 1006.85 1006.23 1005.68 1004.81 1005.25 1004.82 1004.48
1018.16 1018.38 1018.58 1018.63 1019.01 1018.96 1019.25 1019.26 1019.81 1020.02 1017.80 1014.64 1013.74 1013.36 1013.39 1013.66 1014.10 1014.28 1013.94 1014.12 1014.40 1014.94 1015.42 1014.53 1014.59 1014.78 1014.91 1014.59 1014.79 1013.76 1013.75 1014.64 1014.96 1015.18 1014.68 1013.81 1012.83 1006.72 1006.29 1005.95 1004.98 1004.80 1004.50 1004.85 1004.41
1017.99 1018.17 1018.53 1018.85 1019.06 1018.72 1018.65 1019.22 1019.87 1019.71 1016.34 1014.06 1013.32 1013.36 1013.64 1013.80 1014.00 1014.16 1014.17 1014.16 1014.62 1014.68 1014.75 1014.31 1013.93 1014.15 1013.66 1013.49 1013.75 1014.10 1014.38 1015.08 1015.92 1015.64 1014.78 1012.71 1012.25 1003.12 1005.97 1005.38 1004.78 1004.48 1004.37 1004.91 1005.01
1018.45 1018.06 1018.46 1018.53 1018.75 1018.65 1018.49 1019.39 1019.34 1017.66 1015.14 1014.10 1013.61 1013.67 1013.79 1013.97 1014.06 1014.22 1014.34 1014.43 1014.60 1014.77 1014.53 1014.23 1013.84 1012.95 1012.98 1013.64 1013.85 1014.32 1015.14 1015.78 1016.31 1016.43 1013.83 1011.83 1011.55 1006.62 1005.05 1004.76 1004.86 1004.82 1004.81 1005.03 1005.38
1018.49 1018.15 1017.95 1018.10 1018.78 1018.81 1018.70 1019.10 1018.25 1015.80 1014.90 1013.78 1013.85 1013.98 1014.47 1014.26 1014.14 1014.27 1014.34 1014.33 1014.04 1013.99 1014.10 1013.69 1012.19 1012.86 1012.82 1012.56 1012.73 1013.51 1014.19 1015.21 1014.74 1014.85 1013.29 1012.14 1009.47 1004.81 1005.22 1004.56 1004.09 1004.47 1005.13 1005.45 1005.50
1018.36 1017.91 1018.04 1017.67 1018.03 1018.87 1019.13 1018.04 1015.55 1015.06 1014.50 1013.90 1013.89 1014.09 1014.27 1014.41 1014.89 1014.94 1014.85 1014.15 1013.39 1013.22 1013.39 1013.07 1011.41 1011.63 1011.91 1011.89 1012.45 1013.21 1013.22 1012.99 1013.16 1013.17 1013.08 1010.90 1008.14 1006.03 1004.09 1004.15 1004.27 1004.69 1005.39 1006.35 1006.18
1019.02 1018.35 1017.35 1016.97 1017.60 1018.49 1018.72 1016.52 1015.64 1014.73 1014.29 1014.11 1013.98 1013.93 1014.06 1014.40 1014.85 1015.09 1014.41 1013.56 1013.15 1012.85 1012.69 1012.51 1012.15 1011.17 1011.30 1011.65 1011.75 1011.81 1012.34 1012.70 1013.42 1013.09 1011.60 1009.57 1007.92 1006.21 1004.46 1003.50 1005.02 1005.58 1006.36 1007.00 1006.93
1019.11 1018.55 1017.22 1016.63 1017.79 1018.17 1017.17 1015.72 1015.03 1014.50 1014.82 1014.61 1013.86 1014.12 1013.85 1014.24 1014.59 1014.53 1014.33 1013.91 1013.20 1012.81 1013.15 1013.28 1013.14 1012.03 1012.07 1011.57 1011.36 1012.15 1011.91 1012.21 1012.20 1012.10 1010.81 1009.13 1007.32 1006.08 1005.35 1005.22 1006.52 1007.53 1007.62 1008.50 1008.94
1018.79 1018.61 1017.50 1017.23 1017.89 1017.49 1016.19 1015.46 1015.34 1014.41 1014.67 1014.55 1013.96 1013.82 1014.02 1014.04 1014.07 1013.92 1013.48 1013.27 1012.97 1012.75 1013.24 1013.40 1012.46 1012.92 1011.49 1011.12 1011.01 1011.03 1011.53 1011.80 1011.72 1010.72 1010.00 1008.85 1007.42 1006.75 1006.61 1006.75 1009.30 1011.01 1011.21 1011.04 1010.77
1019.10 1018.43 1017.83 1017.22 1017.35 1017.00 1016.10 1015.51 1015.61 1014.69 1014.56 1014.61 1014.12 1014.07 1014.08 1014.00 1013.99 1013.56 1013.17 1012.84 1013.36 1013.43 1013.35 1013.64 1013.16 1012.52 1012.22 1011.60 1012.00 1012.26 1011.99 1012.00 1012.16 1011.72 1010.32 1009.83 1008.34 1008.29 1009.06 1010.41 1012.03 1012.70 1013.32 1012.90 1012.37
1019.91 1018.84 1018.12 1017.53 1017.35 1017.37 1016.86 1015.76 1015.35 1014.61 1014.20 1014.61 1014.38 1014.52 1014.48 1014.40 1014.32 1013.89 1014.13 1013.97 1013.99 1013.81 1014.15 1014.71 1013.71 1013.73 1013.09 1012.71 1012.98 1012.80 1012.46 1012.46 1012.70 1011.57 1010.74 1010.58 1010.46 1010.63 1011.81 1013.15 1014.08 1014.01 1013.76 1014.28 1013.81
1020.34 1019.85 1019.33 1018.43 1018.04 1017.76 1017.45 1016.52 1015.83 1015.17 1014.96 1014.95 1014.62 1014.69 1015.11 1015.16 1014.92 1014.95 1015.08 1015.10 1014.61 1014.48 1014.54 1014.75 1014.12 1014.13 1013.22 1013.51 1013.87 1013.64 1013.38 1012.96 1012.54 1012.34 1012.30 1011.62 1012.33 1013.29 1014.67 1015.50 1015.92 1015.96 1015.45 1014.85 1014.72
1020.86 1020.62 1019.82 1019.62 1018.92 1018.47 1017.78 1016.99 1016.90 1015.73 1016.46 1015.66 1015.90 1015.71 1016.20 1016.25 1016.51 1016.28 1016.65 1016.59 1015.87 1015.80 1015.86 1015.57 1015.40 1015.57 1014.80 1014.29 1014.44 1013.92 1013.28 1012.53 1012.45 1011.99 1012.50 1013.12 1013.89 1015.51 1016.07 1016.43 1016.38 1016.21 1016.16 1015.79 1014.99
1021.00 1021.06 1020.83 1019.79 1019.68 1019.39 1018.54 1018.30 1018.00 1018.01 1017.55 1017.41 1017.55 1017.39 1017.37 1017.49 1017.97 1018.03 1018.01 1018.01 1017.64 1017.24 1017.02 1017.02 1016.71 1016.55 1015.45 1015.59 1015.42 1014.26 1012.79 1012.73 1012.18 1012.04 1013.40 1014.19 1015.26 1016.08 1016.55 1016.47 1015.98 1015.81 1015.94 1015.37 1015.07
Wind_Speed
11 11 12 13 14 13 13 13 13 13 13 13 13 13 14 14 9 1 6 9 5 13 7 6 3 3 3 3 3 3 4 3 6 5 6 2 1 2 2 2 3 8 6 4 3
11 12 12 13 14 14 13 14 14 14 14 14 14 13 13 12 2 6 8 6 9 13 6 7 5 4 2 2 1 5 4 8 6 5 5 3 4 5 1 5 5 6 7 3 5
10 11 12 13 14 14 14 13 13 13 13 13 14 14 15 7 5 7 1 4 11 8 5 3 6 5 3 2 5 5 7 6 7 8 5 5 4 5 5 8 11 10 9 7 6
8 10 11 12 13 14 14 14 14 14 13 12 13 14 15 2 6 2 2 7 9 7 6 5 4 4 4 5 4 3 9 7 4 4 2 5 5 6 8 21 8 14 8 5 10
9 10 10 12 14 14 15 15 14 14 14 13 12 12 3 2 11 3 7 9 6 4 6 5 4 5 4 4 3 5 5 6 7 4 8 5 15 8 10 21 8 8 9 12 10
10 10 11 12 14 16 16 17 16 15 14 11 9 9 2 5 2 7 9 6 5 5 5 7 7 7 5 5 6 2 4 7 6 7 8 8 19 5 14 6 13 6 13 12 12
10 11 11 13 14 15 17 18 18 16 15 11 5 0 1 16 2 7 7 4 6 6 5 4 4 3 3 4 2 3 8 9 6 6 8 7 10 12 21 2 13 13 11 11 14
10 10 11 12 13 15 18 19 19 18 15 9 5 2 9 1 4 5 4 4 4 2 3 3 5 4 3 2 6 3 1 5 2 4 4 8 11 22 8 6 13 14 11 10 14
9 10 11 11 13 16 19 20 11 7 6 11 5 4 10 4 2 2 4 5 5 3 3 3 4 3 2 3 5 3 6 8 11 11 6 9 11 14 6 6 10 12 13 12 19
8 9 11 12 13 17 21 13 2 2 4 2 0 2 6 5 2 4 2 6 4 5 3 3 5 3 2 4 8 9 6 7 7 8 7 6 17 14 15 10 18 17 19 20 21
9 9 9 11 13 17 10 4 5 3 3 8 4 5 4 2 1 4 2 5 4 4 6 1 5 10 21 14 9 3 6 11 8 9 4 20 22 18 17 11 25 22 18 21 21
9 8 10 10 12 12 3 6 1 1 9 7 8 9 5 2 2 2 4 6 5 6 5 5 8 17 2 2 6 5 11 18 14 15 6 13 21 17 20 22 20 24 24 18 17
8 6 8 9 11 5 3 1 3 4 3 11 5 4 4 5 7 5 7 4 5 6 9 11 11 3 6 3 8 4 7 17 14 7 6 10 15 8 10 8 13 19 22 10 14
7 6 6 10 3 0 1 3 3 1 4 9 3 1 1 1 1 1 1 1 2 9 5 6 4 6 3 7 9 15 12 13 11 6 8 5 20 7 9 11 8 16 8 13 13
6 6 4 1 2 1 1 3 1 2 8 4 1 1 1 4 2 1 2 3 4 5 3 8 3 2 4 11 8 12 4 7 4 5 5 1 4 3 4 7 12 9 9 7 8
7 4 6 2 0 1 6 5 2 3 11 3 1 1 1 1 1 2 2 3 1 2 3 8 0 6 9 7 10 2 2 4 4 2 7 10 9 18 4 4 3 8 14 9 9
10 6 6 2 1 5 5 2 2 9 4 2 1 1 2 4 3 4 4 4 6 2 4 2 6 4 4 3 1 3 4 4 4 1 11 3 3 15 9 15 8 10 10 7 9
13 5 5 4 1 4 2 2 9 4 7 2 1 3 5 4 4 3 4 4 6 3 2 5 17 7 5 10 10 9 11 9 8 6 12 4 9 19 6 7 11 6 7 5 9
13 1 2 4 6 1 1 9 9 7 5 3 1 2 3 3 3 1 5 6 7 11 8 4 12 3 6 4 4 4 6 3 2 2 2 12 15 15 14 6 4 2 5 7 10
2 3 4 7 8 3 5 19 6 5 2 1 4 6 4 3 1 3 6 3 5 9 1 4 12 6 3 3 5 7 3 2 2 4 7 7 14 13 23 24 7 9 9 9 9
2 2 3 7 5 3 11 10 10 8 6 6 4 8 8 5 5 7 3 5 5 2 5 2 3 7 1 7 12 2 4 4 2 6 11 16 13 10 21 22 9 10 11 14 19
1 3 0 5 6 4 14 8 9 22 11 7 8 19 18 16 20 21 19 11 5 4 5 10 6 13 25 6 4 5 11 9 12 10 11 13 12 14 16 22 21 20 17 17 18
3 2 1 1 8 11 10 8 10 20 20 4 7 8 13 16 13 14 13 4 7 4 3 4 4 3 4 5 5 1 2 4 10 6 13 14 7 8 12 19 20 19 18 16 16
1 1 2 2 6 6 12 15 17 9 12 10 14 13 16 20 18 13 5 4 2 2 4 4 6 10 14 14 7 11 10 12 14 10 13 15 21 17 13 14 16 13 15 18 18
1 2 1 3 7 12 11 9 14 13 3 5 6 10 9 11 12 11 8 5 1 3 2 2 12 15 18 10 7 8 13 18 18 17 13 19 20 8 10 14 14 12 16 14 17
3 2 3 3 4 5 5 13 20 25 13 19 19 18 15 15 13 19 9 4 5 2 1 3 4 5 13 19 13 19 18 19 21 20 16 19 11 4 3 7 9 8 10 15 15
1 3 0 3 1 1 2 3 4 5 6 7 9 6 9 5 3 2 5 6 5 2 2 2 4 6 18 12 8 13 22 20 18 19 2 10 3 1 4 8 11 11 7 12 13
Wind_Direction
22 20 18 13 8 4 2 360 357 354 352 348 344 340 340 339 319 187 237 214 170 152 102 118 77 89 69 93 91 127 65 242 251 184 249 197 253 224 139 265 219 208 216 232 99
8 6 7 9 6 1 356 353 351 349 345 344 339 335 335 335 301 248 251 194 139 151 110 146 152 126 77 131 107 111 142 227 213 207 243 277 200 266 269 258 256 273 258 158 145
356 355 355 354 355 356 353 349 344 342 341 341 338 335 331 320 339 255 325 191 165 159 124 109 106 119 165 151 198 178 209 215 243 225 260 268 278 218 166 275 225 220 242 194 182
335 335 339 341 342 342 344 341 336 333 332 335 337 334 326 260 297 313 104 149 146 107 100 101 92 130 180 209 185 231 244 224 247 202 281 260 301 258 180 255 217 223 233 172 202
315 319 321 325 328 331 331 330 327 322 323 328 333 340 353 23 251 133 106 112 103 104 150 141 143 140 200 208 184 218 242 248 245 263 259 298 262 236 243 256 260 254 244 237 228
307 313 316 318 321 324 323 321 319 312 311 312 324 329 118 242 236 144 129 126 137 135 157 141 190 198 216 224 189 230 257 270 286 246 238 206 270 144 257 275 278 217 252 243 231
306 312 315 317 318 317 315 313 310 305 298 291 292 337 175 236 94 139 139 169 160 155 159 190 168 158 162 283 277 300 312 312 215 247 234 165 296 230 250 257 268 275 265 268 238
308 311 313 314 314 313 311 311 309 304 292 257 190 168 240 20 109 126 156 108 106 142 147 159 165 185 187 313 354 305 180 307 13 127 264 155 256 272 248 241 269 274 279 278 275
304 310 313 313 314 314 312 313 325 16 65 136 119 154 262 136 214 193 145 151 113 90 80 100 115 165 72 88 5 336 249 224 301 211 189 185 252 256 282 199 259 273 272 270 275
288 298 308 315 320 318 317 315 236 61 69 228 276 43 277 256 128 85 29 126 124 119 75 83 59 119 32 114 237 233 235 254 244 278 180 225 251 275 285 285 261 263 274 272 268
279 290 306 318 324 327 345 359 6 354 35 202 229 248 340 333 75 54 123 88 93 82 172 145 123 201 221 202 241 169 238 251 262 264 299 277 275 269 271 271 278 277 266 266 266
270 291 308 322 332 338 35 65 160 225 309 252 230 266 242 241 305 119 143 143 153 199 111 48 226 231 46 136 235 251 270 272 276 264 248 272 272 277 264 254 250 268 277 274 286
280 283 303 324 337 33 36 120 152 159 236 287 214 201 248 157 222 220 161 139 156 171 199 207 234 183 180 166 239 208 234 265 267 304 253 300 279 234 273 249 257 261 262 280 261
283 292 302 322 20 297 335 173 176 222 290 275 276 318 81 242 234 296 317 156 221 229 190 228 294 203 131 208 200 263 224 255 271 351 280 5 296 176 230 262 272 266 274 262 280
291 287 256 43 246 21 207 140 111 14 295 269 214 320 26 165 151 319 180 109 199 184 145 250 194 163 172 219 158 240 176 239 192 203 317 246 276 109 105 222 267 290 272 283 302
7 296 151 140 77 229 127 110 47 17 250 306 122 228 193 267 210 96 132 67 69 181 221 243 312 180 218 218 187 104 99 58 47 95 280 185 177 300 159 239 249 315 313 336 328
354 8 161 143 267 147 122 328 19 227 328 291 261 255 249 225 234 178 158 171 188 235 242 222 219 221 168 231 134 142 85 315 331 26 233 80 159 251 289 279 268 278 277 302 327
336 317 194 175 131 151 87 77 235 193 229 328 315 12 253 180 257 191 127 240 227 158 137 211 293 179 180 195 198 184 170 174 216 249 281 95 245 267 236 280 260 268 264 321 325
323 214 205 207 159 145 190 215 227 183 210 224 113 236 266 275 244 203 229 236 214 180 194 206 263 186 193 184 178 181 180 239 324 272 258 266 273 301 295 302 344 323 347 337 331
333 272 210 180 142 115 228 235 232 209 110 28 216 183 259 230 191 227 199 199 252 196 327 259 267 188 214 159 214 176 194 211 339 240 243 233 261 267 290 291 300 303 332 330 278
253 261 299 112 117 191 225 243 248 244 240 248 232 252 251 243 222 268 248 267 229 203 185 224 247 269 78 204 204 188 234 216 199 198 253 265 255 262 274 297 343 352 335 5 20
190 226 62 148 189 232 236 230 241 262 267 282 265 259 259 268 272 265 253 226 200 179 185 219 206 234 251 249 230 188 249 241 240 248 242 263 262 298 316 314 26 41 26 5 10
190 260 203 9 226 231 245 257 249 265 267 272 267 255 270 268 280 253 248 265 290 263 294 11 236 257 309 313 40 136 290 278 277 279 247 263 273 307 328 14 24 19 7 4 4
245 225 233 202 254 259 251 264 263 249 259 245 263 265 275 276 266 270 264 308 47 156 284 208 222 258 271 268 260 272 268 268 264 260 287 268 285 289 350 360 357 8 17 0 356
37 239 232 230 242 249 250 269 272 276 205 328 267 250 282 284 276 259 248 267 309 16 359 329 278 272 270 291 312 301 291 286 264 267 265 289 286 344 17 354 354 2 0 2 352
155 199 340 282 305 302 232 246 258 270 274 274 268 274 282 272 266 285 287 197 228 6 19 133 285 336 297 293 292 281 269 259 266 279 265 262 270 34 9 337 335 339 350 344 343
336 323 217 264 324 139 224 287 323 18 45 37 18 334 296 311 10 354 302 291 278 294 240 242 273 269 271 287 301 278 251 251 256 261 249 258 110 192 293 321 327 325 321 340 331